AirNav   Air Wisconsin Up To $57,000 Bonus
 
 688 users online  

F95 Calhoun County Airport
Blountstown, Florida, USA

GOING TO BLOUNTSTOWN?


FAA INFORMATION EFFECTIVE 02 JANUARY 2020

Location

FAA Identifier: F95
Lat/Long: 30-29-13.9550N 085-06-49.6650W
30-29.232583N 085-06.827750W
30.4872097,-85.1137958
(estimated)
Elevation: 122 ft. / 37 m (estimated)
Variation: 02W (1995)
From city: 5 miles NW of BLOUNTSTOWN, FL
Time zone: UTC -6 (UTC -5 during Daylight Saving Time)
Zip code: 32421

Airport Operations

Airport use: Open to the public
Activation date: 12/1996
Control tower: no
ARTCC: JACKSONVILLE CENTER
FSS: GAINESVILLE FLIGHT SERVICE STATION
NOTAMs facility: GNV (NOTAM-D service available)
Attendance: MON-FRI 0700-1500
Wind indicator: lighted
Segmented circle: yes
Lights: ACTVT MIRL RY 18/36 AND PAPI RYS 18 & 36 - CTAF.
Beacon: white (unlighted land airport)
Operates sunset to sunrise.

Airport Communications

CTAF: 122.9
WX AWOS-AV: 119.350 (850-674-1347)

Nearby radio navigation aids

VOR radial/distance  VOR name  Freq  Var
MAIr178/17.9MARIANNA VORTAC114.0000E
SZWr262/38.5SEMINOLE VORTAC117.5002E

 
NDB name  Hdg/Dist  Freq  Var  ID
SOYYA168/23.832902WSMY ... -- -.--
LYNNE078/35.927804WPFN .--. ..-. -.

Airport Services

Fuel available: 100LL JET-A
Parking: hangars and tiedowns
Airframe service: MAJOR
Powerplant service: MAJOR
Bottled oxygen: NONE
Bulk oxygen: NONE

Runway Information

Runway 18/36

Dimensions: 3100 x 60 ft. / 945 x 18 m
Surface: asphalt, in good condition
Weight bearing capacity: 
PCN 13 /F/A/Y/T
Runway edge lights: medium intensity
RUNWAY 18  RUNWAY 36
Latitude: 30-29.488333N30-28.976833N
Longitude: 085-06.829333W085-06.826167W
Elevation: 120.9 ft.118.1 ft.
Traffic pattern: leftleft
Runway heading: 182 magnetic, 180 true002 magnetic, 360 true
Markings: nonprecision, in good conditionnonprecision, in good condition
Visual slope indicator: 2-light PAPI on left (3.00 degrees glide path)2-light PAPI on left (3.00 degrees glide path)
Obstructions: 68 ft. trees, 1547 ft. from runway, 40 ft. left of centerline, 20:1 slope to clear
APPROACH SLOPE 20:1 TO THE DSPLCD THLD DUE TO 88 FT TREE 185 FT L OF CNTRLN AND 1600 FT FRM RY END.
15 ft. road, 425 ft. from runway, 125 ft. right of centerline, 15:1 slope to clear

Airport Ownership and Management from official FAA records

Ownership: Publicly-owned
Owner: CALHOUN COUNTY
20589 CENTRAL AVENUE EAST
BLOUNTSTOWN, FL 32424
Phone 850-674-4545
Manager: ROBERT FLECK
16701 AGRIPARK ROAD
ALTHA, FL 32421
Phone (850) 674-2499
CELL: 850-643-7582

Airport Operational Statistics

Aircraft based on the field: 11
Single engine airplanes: 11
    
Aircraft operations: avg 38/week *
50% transient general aviation
50% local general aviation
* for 12-month period ending 05 March 2018

Additional Remarks

FOR CD CTC TYNDALL APCH AT 850-283-2900 OR 850-283-3353, WHEN APCH CLSD CTC JACKSONVILLE ARTCC AT 904-845-1592.

Instrument Procedures

There are no published instrument procedures at F95.

Some nearby airports with instrument procedures:

KMAI - Marianna Municipal Airport (21 nm N)
2J9 - Quincy Municipal Airport (30 nm E)
1J0 - Tri-County Airport (33 nm NW)
17J - Donalsonville Municipal Airport (33 nm N)
KPAM - Tyndall Air Force Base (35 nm SW)
 
Loc | Ops | Rwys | IFR | FBO | Links
Com | Nav | Svcs | Stats | Notes

Continental Services
AirBoss

 
Area around F95 (Calhoun County Airport)
 
Road maps at: MapQuest Bing Google
 
Aerial photo
WARNING: Photo may not be current or correct
Aerial photo of F95 (Calhoun County Airport)
Photo by Brian Christopher
Photo taken 08-Aug-2010

Do you have a better or more recent aerial photo of Calhoun County Airport that you would like to share? If so, please send us your photo.

 
Sectional chart

 
Airport distance calculator
Flying to Calhoun County Airport? Find the distance to fly.

From to F95

Sunrise and sunset
Times for 22-Jan-2020
 Local
(UTC-6)
 Zulu
(UTC)
Morning civil twilight06:1212:12
Sunrise06:3712:37
Sunset17:0723:07
Evening civil twilight17:3323:33

Current date and time
Zulu (UTC)  23-Jan-2020 05:02:10
Local (UTC-6)  22-Jan-2020 23:02:10
 
METAR
KMAI 
21nm N 
230453Z AUTO 05007KT 10SM BKN036 08/M03 A3022 RMK AO2 SLP234 T00831028
K2J9 
30nm E 
230455Z AUTO VRB05G11KT 10SM OVC037 10/M04 A3022 RMK AO2
K1J0 
33nm NW 
230358Z AUTO 06005KT 10SM CLR 09/M04 A3023 RMK AO2 SLP223 T00941039
K17J 
33nm N 
230430Z AUTO 09008KT 10SM BKN038 08/M04 A3024 RMK AO2 T00831036
KPAM 
34nm SW 
230456Z AUTO 06005KT 10SM SCT034 BKN160 OVC190 09/M01 A3020 RMK AO2 SLP230 T00931006 $
KECP 
36nm W 
230453Z AUTO 04008KT 10SM OVC042 10/M03 A3019 RMK AO2 SLP234 T01001028
KBGE 
38nm NE 
230455Z AUTO 07012KT 10SM OVC040 09/M04 A3023 RMK AO2 T00861036
KTLH 
40nm E 
230453Z AUTO 07011KT 10SM OVC038 11/M04 A3020 RMK AO2 PRESFR SLP227 T01111039 401501017
TAF
KPAM 
34nm SW 
221900Z 2219/2401 04009KT 9999 BKN200 QNH3021INS BECMG 2305/2306 09006KT 9999 SCT025 BKN150 QNH3017INS BECMG 2314/2315 10012KT 9999 VCSH BKN025 BKN100 QNH3001INS BECMG 2323/2324 11012KT 8000 -SHRA SCT010 BKN020 BKN060 QNH3000INS TX16/2319Z TN05/2311Z LAST NO AMDS AFT 2223 NEXT 2311
KECP 
36nm W 
221738Z 2218/2318 03005KT P6SM FEW250 FM231000 04007KT 5SM -SHRA BR OVC025
KTLH 
40nm E 
221738Z 2218/2318 VRB04KT P6SM FEW250 FM231200 00000KT P6SM OVC050
NOTAMs
Click for the latest NOTAMs
NOTAMs are issued by the DoD/FAA and will open in a separate window not controlled by AirNav.

 

 
 

Would you like to see your business listed on this page?

 If your business provides an interesting product or service to pilots, flight crews, aircraft, or users of the Calhoun County Airport, you should consider listing it here.  To start the listing process, click on the button below
 
Add a business
 

Other Pages about Calhoun County Airport

Update a link
 
Copyright © AirNav, LLC. All rights reserved. Privacy Policy  Contact